Barnwell, SC

6:37 PM EST on November 11, 2019 (GMT -0500)
Barnwell County

Weather History for KBNL - September, 2019

Change the Weather History Date:

Tuesday, September 24, 2019

  Actual Average (WUND) Record (WUND)
Temperature  
Mean Temperature 78 °F -  
Max Temperature 93 °F - - (-1)
Min Temperature 64 °F - - (-1)
Cooling Degree Days 14    
Growing Degree Days 28 (Base 50)    
Moisture  
Dew Point 64 °F    
Average Humidity 60    
Maximum Humidity 94    
Minimum Humidity 34    
Precipitation  
Precipitation 0.00 in - - ()
Sea Level Pressure  
Sea Level Pressure 29.89 in    
Wind  
Wind Speed 3 mph (ENE)    
Max Wind Speed 10 mph    
Max Gust Speed 13 mph    
Averages and records for this station are not official NWS values.
T = Trace of Precipitation, MM = Missing Value Source: NWS Daily Summary

Daily Weather History Graph

Daily Weather History Graph

Search for Another Location

Airport or City:

Astronomy

Sep. 24, 2019 Rise Set
Actual Time 7:14 AM EDT 7:19 PM EDT
Civil Twilight 6:50 AM EDT 7:44 PM EDT
Nautical Twilight 6:21 AM EDT 8:13 PM EDT
Astronomical Twilight 5:52 AM EDT 8:42 PM EDT
Moon 2:16 AM EDT (9/24) 4:47 PM EDT (9/24)
Length of Visible Light 12h 54m
Length of Day
12h 04m
Waning Crescent, 23% of the Moon is Illuminated
Sep 24
Waning Crescent
Sep 28
New
Oct 5
First Quarter
Oct 13
Full
Oct 21
Last Quarter

Hourly Weather History & Observations

Time (EDT) Temp. Heat Index Dew Point Humidity Pressure Visibility Wind Dir Wind Speed Gust Speed Precip Events Conditions
12:15 AM 71.6 °F - 66.2 °F 83% 29.97 in - South 4.6 mph - N/A   Clear
12:35 AM 71.6 °F - 66.2 °F 83% 29.97 in - SSW 5.8 mph - N/A   Clear
12:55 AM 71.6 °F - 66.2 °F 83% 29.96 in - South 4.6 mph - N/A   Clear
1:55 AM 69.8 °F - 66.2 °F 88% 29.95 in - SSW 3.5 mph - N/A   Clear
2:15 AM 69.8 °F - 66.2 °F 88% 29.94 in - Calm Calm - N/A   Clear
2:35 AM 69.8 °F - 66.2 °F 88% 29.94 in - Calm Calm - N/A   Clear
2:55 AM 69.8 °F - 66.2 °F 88% 29.93 in - SSW 4.6 mph - N/A   Clear
3:15 AM 69.8 °F - 66.2 °F 88% 29.92 in - Calm Calm - N/A   Unknown
3:35 AM 68.0 °F - 66.2 °F 94% 29.92 in - Calm Calm - N/A   Unknown
3:55 AM 68.0 °F - 64.4 °F 88% 29.91 in - Calm Calm - N/A   Unknown
4:15 AM 66.2 °F - 64.4 °F 94% 29.91 in - Calm Calm - N/A   Unknown
4:35 AM 66.2 °F - 64.4 °F 94% 29.91 in - Calm Calm - N/A   Mostly Cloudy
4:55 AM 66.2 °F - 64.4 °F 94% 29.91 in - Calm Calm - N/A   Unknown
7:35 AM 64.4 °F - 62.6 °F 94% 29.92 in - Calm Calm - N/A   Unknown
8:15 AM 66.2 °F - 64.4 °F 94% 29.93 in - Calm Calm - N/A   Unknown
8:35 AM 68.0 °F - 64.4 °F 88% 29.93 in - Calm Calm - N/A   Unknown
8:55 AM 69.8 °F - 64.4 °F 83% 29.93 in - NW 4.6 mph - N/A   Clear
9:15 AM 73.4 °F - 64.4 °F 73% 29.93 in - Calm Calm - N/A   Clear
9:35 AM 75.2 °F - 64.4 °F 69% 29.94 in - North 6.9 mph - N/A   Clear
9:55 AM 77.0 °F - 64.4 °F 65% 29.94 in - Calm Calm - N/A   Clear
10:15 AM 80.6 °F 81.8 °F 62.6 °F 54% 29.94 in - NNE 5.8 mph - N/A   Clear
10:35 AM 82.4 °F 83.4 °F 62.6 °F 51% 29.94 in - NE 8.1 mph - N/A   Clear
10:55 AM 84.2 °F 85.0 °F 62.6 °F 48% 29.94 in - ENE 8.1 mph - N/A   Clear
11:15 AM 86.0 °F 86.6 °F 62.6 °F 45% 29.94 in - NE 10.4 mph - N/A   Clear
11:35 AM 86.0 °F 86.6 °F 62.6 °F 45% 29.94 in - ENE 9.2 mph - N/A   Clear
11:55 AM 87.8 °F 88.5 °F 62.6 °F 43% 29.93 in - East 8.1 mph - N/A   Clear
12:15 PM 87.8 °F 88.5 °F 62.6 °F 43% 29.92 in - East 9.2 mph - N/A   Partly Cloudy
12:35 PM 89.6 °F 90.1 °F 62.6 °F 40% 29.91 in - East 5.8 mph 12.7 mph N/A   Clear
12:55 PM 89.6 °F 90.1 °F 62.6 °F 40% 29.91 in - Variable 4.6 mph 11.5 mph N/A   Clear
1:15 PM 89.6 °F 90.1 °F 62.6 °F 40% 29.90 in - SE 4.6 mph - N/A   Clear
1:35 PM 91.4 °F 92.1 °F 62.6 °F 38% 29.89 in - Variable 4.6 mph - N/A   Clear
1:55 PM 91.4 °F 92.1 °F 62.6 °F 38% 29.87 in - Calm Calm - N/A   Clear
2:15 PM 93.2 °F 94.1 °F 62.6 °F 36% 29.86 in - Calm Calm - N/A   Clear
2:35 PM 91.4 °F 92.1 °F 62.6 °F 38% 29.85 in - NE 4.6 mph - N/A   Mostly Cloudy
2:55 PM 93.2 °F 94.1 °F 62.6 °F 36% 29.85 in - West 4.6 mph - N/A   Partly Cloudy
3:15 PM 91.4 °F 92.1 °F 62.6 °F 38% 29.84 in - Calm Calm - N/A   Scattered Clouds
3:35 PM 91.4 °F 91.4 °F 60.8 °F 36% 29.84 in - NE 5.8 mph - N/A   Mostly Cloudy
3:55 PM 93.2 °F 93.3 °F 60.8 °F 34% 29.84 in - Calm Calm - N/A   Mostly Cloudy
4:15 PM 93.2 °F 93.3 °F 60.8 °F 34% 29.83 in - Variable 4.6 mph - N/A   Partly Cloudy
4:35 PM 93.2 °F 93.3 °F 60.8 °F 34% 29.83 in - NNE 4.6 mph - N/A   Scattered Clouds
4:55 PM 93.2 °F 93.3 °F 60.8 °F 34% 29.82 in - Variable 5.8 mph - N/A   Partly Cloudy
5:15 PM 91.4 °F 92.1 °F 62.6 °F 38% 29.82 in - Variable 3.5 mph - N/A   Clear
5:35 PM 91.4 °F 92.1 °F 62.6 °F 38% 29.82 in - Calm Calm - N/A   Clear
5:55 PM 93.2 °F 94.1 °F 62.6 °F 36% 29.82 in - West 4.6 mph - N/A   Scattered Clouds
6:15 PM 91.4 °F 92.1 °F 62.6 °F 38% 29.83 in - Calm Calm - N/A   Scattered Clouds
6:35 PM 89.6 °F 90.1 °F 62.6 °F 40% 29.82 in - Calm Calm - N/A   Partly Cloudy
6:55 PM 89.6 °F 91.1 °F 64.4 °F 43% 29.83 in - Calm Calm - N/A   Mostly Cloudy
7:15 PM 87.8 °F 89.4 °F 64.4 °F 46% 29.83 in - Calm Calm - N/A   Scattered Clouds
7:35 PM 86.0 °F 87.3 °F 64.4 °F 48% 29.83 in - Calm Calm - N/A   Scattered Clouds
7:55 PM 82.4 °F 84.6 °F 66.2 °F 58% 29.84 in - Calm Calm - N/A   Clear
8:15 PM 82.4 °F 84.6 °F 66.2 °F 58% 29.84 in - Calm Calm - N/A   Clear
8:35 PM 80.6 °F 82.3 °F 64.4 °F 58% 29.84 in - Calm Calm - N/A   Partly Cloudy
8:55 PM 78.8 °F - 66.2 °F 65% 29.85 in - Calm Calm - N/A   Partly Cloudy
9:15 PM 77.0 °F - 64.4 °F 65% 29.86 in - Calm Calm - N/A   Clear
9:35 PM 77.0 °F - 64.4 °F 65% 29.86 in - ENE 3.5 mph - N/A   Clear
9:55 PM 77.0 °F - 66.2 °F 69% 29.87 in - Calm Calm - N/A   Clear
10:15 PM 78.8 °F - 66.2 °F 65% 29.87 in - Calm Calm - N/A   Clear
10:35 PM 78.8 °F - 66.2 °F 65% 29.88 in - Calm Calm - N/A   Mostly Cloudy
10:55 PM 77.0 °F - 66.2 °F 69% 29.88 in - Calm Calm - N/A   Overcast
11:55 PM 77.0 °F - 66.2 °F 69% 29.87 in - Calm Calm - N/A   Scattered Clouds